When you browse on this site, cookies collect data to enhance your experience and personalize the content and advertising you see.
Visit our Privacy Policy to learn more. By continuing to use the site, you agree to this use of cookies and data.
  • In Slovakia
  • List of Countries
  • For 7 days
  • Water Temperature
  • Weather Map
  • Weather Widgets
  • user-avatar
    Login

    Hourly Weather Ropotamo

    Today, 8 December, Sunday

    Time Temperature Precipitation Wind Pressure Humidity
    00:00 +6°C° 0 mm 4 mps 759 mmHg 72%
    01:00 +6°C° 0 mm 4 mps 759 mmHg 71%
    02:00 +7°C° 0 mm 3 mps 759 mmHg 69%
    03:00 +7°C° 0 mm 3 mps 759 mmHg 72%
    04:00 +7°C° 0 mm 3 mps 758 mmHg 75%
    05:00 +7°C° 0 mm 3 mps 758 mmHg 78%
    06:00 +7°C° 0 mm 3 mps 759 mmHg 80%
    07:00 +7°C° 0 mm 3 mps 759 mmHg 82%
    08:00 +7°C° 0 mm 3 mps 760 mmHg 84%
    09:00 +8°C° 0 mm 3 mps 760 mmHg 81%
    10:00 +8°C° 0 mm 3 mps 760 mmHg 79%
    11:00 +9°C° 0 mm 3 mps 760 mmHg 76%
    12:00 +10°C° 0 mm 3 mps 760 mmHg 74%
    13:00 +10°C° 0 mm 3 mps 760 mmHg 73%
    14:00 +11°C° 0 mm 3 mps 760 mmHg 71%
    15:00 +10°C° 0 mm 2 mps 760 mmHg 74%
    16:00 +9°C° 0 mm 2 mps 760 mmHg 78%
    17:00 +9°C° 0 mm 1 mps 760 mmHg 81%
    18:00 +9°C° 0 mm 1 mps 761 mmHg 82%
    19:00 +8°C° 0 mm 1 mps 761 mmHg 84%
    20:00 +8°C° 0 mm 1 mps 761 mmHg 85%
    21:00 +8°C° 0 mm 1 mps 761 mmHg 86%
    22:00 +7°C° 0 mm 1 mps 761 mmHg 86%
    23:00 +7°C° 0 mm 1 mps 761 mmHg 87%

    Tomorrow, 9 December, Monday

    Time Temperature Precipitation Wind Pressure Humidity
    00:00 +7°C° 0 mm 1 mps 761 mmHg 87%
    01:00 +7°C° 0 mm 1 mps 761 mmHg 88%
    02:00 +7°C° 0 mm 1 mps 760 mmHg 88%
    03:00 +6°C° 0 mm 1 mps 760 mmHg 88%
    04:00 +6°C° 0 mm 1 mps 760 mmHg 88%
    05:00 +6°C° 0 mm 1 mps 760 mmHg 88%
    06:00 +6°C° 0 mm 1 mps 760 mmHg 88%
    07:00 +6°C° 0 mm 1 mps 760 mmHg 88%
    08:00 +6°C° 0 mm 1 mps 760 mmHg 87%
    09:00 +8°C° 0 mm 1 mps 760 mmHg 81%
    10:00 +9°C° 0 mm 1 mps 759 mmHg 75%
    11:00 +10°C° 0 mm 2 mps 759 mmHg 69%
    12:00 +10°C° 0 mm 2 mps 759 mmHg 67%
    13:00 +12°C° 0 mm 2 mps 758 mmHg 64%
    14:00 +13°C° 0 mm 2 mps 757 mmHg 61%
    15:00 +12°C° 0 mm 2 mps 757 mmHg 67%
    16:00 +9°C° 0 mm 3 mps 757 mmHg 73%
    17:00 +8°C° 0 mm 3 mps 757 mmHg 79%
    18:00 +8°C° 0 mm 3 mps 757 mmHg 81%
    19:00 +7°C° 0 mm 3 mps 757 mmHg 83%
    20:00 +7°C° 0 mm 3 mps 757 mmHg 85%
    21:00 +7°C° 0 mm 3 mps 757 mmHg 85%
    22:00 +7°C° 0 mm 2 mps 757 mmHg 85%
    23:00 +6°C° 0 mm 2 mps 757 mmHg 86%

    Day after tomorrow, 10 December, Tuesday

    Time Temperature Precipitation Wind Pressure Humidity
    00:00 +6°C° 0 mm 2 mps 756 mmHg 86%
    01:00 +6°C° 0 mm 2 mps 756 mmHg 86%
    02:00 +7°C° 0 mm 1 mps 756 mmHg 86%
    03:00 +7°C° 0 mm 1 mps 756 mmHg 86%
    04:00 +6°C° 0 mm 1 mps 756 mmHg 85%
    05:00 +6°C° 0 mm 1 mps 756 mmHg 85%
    06:00 +6°C° 0 mm 1 mps 756 mmHg 84%
    07:00 +6°C° 0 mm 1 mps 756 mmHg 84%
    08:00 +6°C° 0 mm 1 mps 756 mmHg 83%
    09:00 +8°C° 0 mm 1 mps 756 mmHg 77%
    10:00 +10°C° 0 mm 1 mps 756 mmHg 71%
    11:00 +11°C° 0 mm 1 mps 757 mmHg 65%
    12:00 +12°C° 0 mm 1 mps 756 mmHg 64%
    13:00 +12°C° 0 mm 1 mps 756 mmHg 63%
    14:00 +12°C° 0 mm 1 mps 756 mmHg 62%
    15:00 +11°C° 0 mm 1 mps 756 mmHg 68%
    16:00 +10°C° 0 mm 1 mps 756 mmHg 74%
    17:00 +9°C° 0 mm 1 mps 756 mmHg 80%
    18:00 +9°C° 0 mm 1 mps 757 mmHg 81%
    19:00 +8°C° 0 mm 1 mps 757 mmHg 83%
    20:00 +7°C° 0 mm 0 mps 757 mmHg 84%
    21:00 +8°C° 0 mm 1 mps 758 mmHg 85%
    22:00 +8°C° 0 mm 1 mps 758 mmHg 86%
    23:00 +6°C° 0 mm 2 mps 758 mmHg 87%

    11 December, Wednesday

    Time Temperature Precipitation Wind Pressure Humidity
    00:00 +6°C° 0 mm 2 mps 758 mmHg 88%
    01:00 +6°C° 0 mm 2 mps 758 mmHg 89%
    02:00 +5°C° 0 mm 3 mps 758 mmHg 91%
    03:00 +5°C° 0.1 mm 3 mps 758 mmHg 92%
    04:00 +7°C° 0.1 mm 3 mps 758 mmHg 92%
    05:00 +6°C° 0.1 mm 4 mps 758 mmHg 93%
    06:00 +6°C° 0.2 mm 4 mps 758 mmHg 93%
    07:00 +7°C° 0.2 mm 5 mps 759 mmHg 93%
    08:00 +7°C° 0.2 mm 5 mps 759 mmHg 92%
    09:00 +8°C° 0.2 mm 6 mps 759 mmHg 88%
    10:00 +9°C° 0.2 mm 6 mps 759 mmHg 84%
    11:00 +10°C° 0.2 mm 7 mps 759 mmHg 80%
    12:00 +10°C° 0.1 mm 7 mps 759 mmHg 77%
    13:00 +11°C° 0.1 mm 7 mps 759 mmHg 74%
    14:00 +11°C° 0.1 mm 7 mps 758 mmHg 72%
    15:00 +10°C° 0.1 mm 7 mps 758 mmHg 75%
    16:00 +10°C° 0.1 mm 7 mps 758 mmHg 77%
    17:00 +9°C° 0.1 mm 7 mps 759 mmHg 80%
    18:00 +9°C° 0.2 mm 7 mps 759 mmHg 82%
    19:00 +9°C° 0.2 mm 8 mps 759 mmHg 83%
    20:00 +9°C° 0.2 mm 8 mps 759 mmHg 84%
    21:00 +9°C° 0.1 mm 8 mps 759 mmHg 85%
    22:00 +9°C° 0.1 mm 7 mps 759 mmHg 85%
    23:00 +9°C° 0.1 mm 7 mps 759 mmHg 85%

    12 December, Thursday

    Time Temperature Precipitation Wind Pressure Humidity
    00:00 +9°C° 0.1 mm 7 mps 759 mmHg 86%
    01:00 +8°C° 0.1 mm 6 mps 758 mmHg 87%
    02:00 +8°C° 0.1 mm 6 mps 758 mmHg 89%
    03:00 +8°C° 0.1 mm 6 mps 758 mmHg 89%
    04:00 +8°C° 0.1 mm 6 mps 758 mmHg 88%
    05:00 +8°C° 0.1 mm 5 mps 757 mmHg 88%
    06:00 +8°C° 0.1 mm 5 mps 758 mmHg 87%
    07:00 +8°C° 0.1 mm 5 mps 758 mmHg 86%
    08:00 +8°C° 0.1 mm 5 mps 758 mmHg 84%
    09:00 +9°C° 0.1 mm 5 mps 758 mmHg 83%
    10:00 +9°C° 0.1 mm 5 mps 758 mmHg 81%
    11:00 +10°C° 0.1 mm 5 mps 758 mmHg 79%
    12:00 +10°C° 0.1 mm 5 mps 757 mmHg 79%
    13:00 +10°C° 0.1 mm 5 mps 757 mmHg 79%
    14:00 +11°C° 0.1 mm 4 mps 756 mmHg 78%
    15:00 +11°C° 0 mm 4 mps 756 mmHg 81%
    16:00 +10°C° 0 mm 4 mps 756 mmHg 83%
    17:00 +10°C° 0 mm 4 mps 756 mmHg 86%
    18:00 +10°C° 0 mm 4 mps 756 mmHg 86%
    19:00 +10°C° 0 mm 3 mps 756 mmHg 85%
    20:00 +10°C° 0 mm 3 mps 756 mmHg 85%
    21:00 +9°C° 0 mm 3 mps 756 mmHg 85%
    22:00 +9°C° 0 mm 3 mps 756 mmHg 85%
    23:00 +9°C° 0 mm 3 mps 756 mmHg 85%

    13 December, Friday

    Time Temperature Precipitation Wind Pressure Humidity
    00:00 +9°C° 0 mm 3 mps 756 mmHg 86%
    01:00 +9°C° 0 mm 3 mps 755 mmHg 86%
    02:00 +9°C° 0 mm 2 mps 755 mmHg 86%
    03:00 +9°C° 0 mm 2 mps 755 mmHg 87%
    04:00 +9°C° 0 mm 2 mps 754 mmHg 87%
    05:00 +9°C° 0 mm 2 mps 754 mmHg 88%
    06:00 +9°C° 0 mm 2 mps 754 mmHg 88%
    07:00 +9°C° 0 mm 2 mps 754 mmHg 88%
    08:00 +9°C° 0 mm 2 mps 754 mmHg 88%
    09:00 +10°C° 0 mm 2 mps 754 mmHg 87%
    10:00 +10°C° 0 mm 2 mps 754 mmHg 86%
    11:00 +10°C° 0 mm 2 mps 754 mmHg 86%
    12:00 +10°C° 0 mm 2 mps 753 mmHg 83%
    13:00 +12°C° 0 mm 2 mps 753 mmHg 80%
    14:00 +12°C° 0 mm 1 mps 752 mmHg 78%
    15:00 +12°C° 0 mm 1 mps 752 mmHg 81%
    16:00 +11°C° 0 mm 1 mps 752 mmHg 85%
    17:00 +11°C° 0 mm 1 mps 752 mmHg 88%
    18:00 +10°C° 0.1 mm 1 mps 752 mmHg 88%
    19:00 +10°C° 0.1 mm 1 mps 753 mmHg 88%
    20:00 +9°C° 0.1 mm 2 mps 753 mmHg 88%
    21:00 +9°C° 0 mm 2 mps 753 mmHg 87%
    22:00 +9°C° 0 mm 2 mps 753 mmHg 87%
    23:00 +8°C° 0 mm 2 mps 753 mmHg 87%
    Show more